| time (UTC) | temp F | wind direction | speed MPH | gust MPH | rain 1hr in | rain 24hr in | rain mn in | humidity % | barometer mb |
| 20260508114724 | 68 | 141 | 5.0 | 8.0 | 0.00 | 0.00 | 0.00 | 67 | 1014.2 |
| 20260508113222 | 68 | 112 | 3.0 | 7.0 | 0.00 | 0.00 | 0.00 | 65 | 1014.3 |
| 20260508111726 | 68 | 77 | 3.0 | 8.0 | 0.00 | 0.00 | 0.00 | 63 | 1014.4 |
| 20260508110225 | 68 | 300 | 3.0 | 7.0 | 0.00 | 0.00 | 0.00 | 66 | 1014.4 |
| 20260508104725 | 67 | 153 | 4.0 | 10.0 | 0.00 | 0.00 | 0.00 | 65 | 1014.5 |
| 20260508103228 | 68 | 145 | 2.0 | 6.0 | 0.00 | 0.00 | 0.00 | 64 | 1014.6 |
| 20260508101727 | 67 | 173 | 2.0 | 7.0 | 0.00 | 0.00 | 0.00 | 66 | 1014.7 |
| 20260508100224 | 66 | 90 | 5.0 | 9.0 | 0.00 | 0.00 | 0.00 | 66 | 1014.8 |
| 20260508094726 | 66 | 88 | 5.0 | 8.0 | 0.00 | 0.00 | 0.00 | 65 | 1014.8 |
| 20260508093223 | 66 | 155 | 5.0 | 9.0 | 0.00 | 0.00 | 0.00 | 68 | 1014.8 |
| 20260508091722 | 67 | 89 | 3.0 | 8.0 | 0.00 | 0.00 | 0.00 | 63 | 1014.8 |
| 20260508090221 | 66 | 46 | 2.0 | 5.0 | 0.00 | 0.00 | 0.00 | 67 | 1014.8 |
| 20260508084723 | 66 | 49 | 1.0 | 4.0 | 0.00 | 0.00 | 0.00 | 67 | 1014.8 |
| 20260508083220 | 65 | 173 | 1.0 | 3.0 | 0.00 | 0.00 | 0.00 | 73 | 1014.8 |
| 20260508081719 | 63 | 171 | 1.0 | 2.0 | 0.00 | 0.00 | 0.00 | 71 | 1014.8 |
| 20260508080222 | 64 | 171 | 2.0 | 4.0 | 0.00 | 0.04 | 0.00 | 69 | 1014.7 |
| 20260508074722 | 65 | 191 | 2.0 | 4.0 | 0.00 | 0.04 | 0.00 | 70 | 1014.6 |
| 20260508073220 | 64 | 173 | 3.0 | 5.0 | 0.00 | 0.04 | 0.00 | 73 | 1014.5 |
| 20260508071721 | 64 | 207 | 3.0 | 5.0 | 0.00 | 0.04 | 0.00 | 72 | 1014.5 |
| 20260508070221 | 64 | 191 | 4.0 | 7.0 | 0.00 | 0.04 | 0.00 | 74 | 1014.4 |
| 20260508064717 | 62 | 165 | 2.0 | 5.0 | 0.00 | 0.04 | 0.00 | 80 | 1014.2 |
| 20260508063220 | 60 | 96 | 2.0 | 6.0 | 0.00 | 0.04 | 0.00 | 82 | 1013.8 |
| 20260508061718 | 59 | 112 | 2.0 | 4.0 | 0.00 | 0.04 | 0.00 | 85 | 1013.7 |
| 20260508060218 | 57 | 225 | 1.0 | 3.0 | 0.00 | 0.04 | 0.00 | 93 | 1013.6 |
| 20260508054717 | 55 | 224 | 1.0 | 2.0 | 0.00 | 0.04 | 0.00 | 95 | 1013.5 |
| 20260508053221 | 54 | 224 | 0.0 | 2.0 | 0.00 | 0.04 | 0.00 | 95 | 1013.5 |
| 20260508051718 | 52 | 225 | 0.0 | 0.0 | 0.00 | 0.04 | 0.00 | 95 | 1013.4 |
| 20260508050235 | 49 | 225 | 0.0 | 0.0 | 0.00 | 0.12 | 0.00 | 95 | 1013.3 |
| 20260508044719 | 49 | 225 | 0.0 | 0.0 | 0.00 | 0.12 | 0.00 | 95 | 1013.2 |
| 20260508043217 | 48 | 225 | 0.0 | 0.0 | 0.00 | 0.12 | 0.00 | 94 | 1013.1 |
| 20260508041717 | 48 | 225 | 0.0 | 0.0 | 0.00 | 0.12 | 0.00 | 94 | 1013.0 |
| 20260508040219 | 48 | 225 | 0.0 | 0.0 | 0.00 | 0.16 | 0.00 | 94 | 1012.9 |
| 20260508034718 | 49 | 225 | 0.0 | 0.0 | 0.00 | 0.16 | 0.00 | 94 | 1012.9 |
| 20260508033217 | 49 | 225 | 0.0 | 0.0 | 0.00 | 0.16 | 0.00 | 94 | 1012.9 |
| 20260508031732 | 48 | 225 | 0.0 | 0.0 | 0.00 | 0.16 | 0.00 | 94 | 1012.8 |
| 20260508030235 | 48 | 225 | 0.0 | 0.0 | 0.00 | 0.16 | 0.00 | 94 | 1012.8 |
| 20260508024733 | 49 | 225 | 0.0 | 0.0 | 0.00 | 0.16 | 0.00 | 94 | 1012.8 |
| 20260508023232 | 49 | 225 | 0.0 | 0.0 | 0.00 | 0.16 | 0.00 | 94 | 1012.9 |
| 20260508021733 | 49 | 224 | 0.0 | 0.0 | 0.00 | 0.16 | 0.00 | 94 | 1012.9 |
| 20260508020233 | 49 | 224 | 0.0 | 0.0 | 0.00 | 0.16 | 0.00 | 94 | 1012.9 |
| 20260508014733 | 49 | 225 | 0.0 | 2.0 | 0.00 | 0.16 | 0.00 | 94 | 1012.9 |
| 20260508013235 | 49 | 225 | 0.0 | 0.0 | 0.00 | 0.16 | 0.00 | 94 | 1012.9 |
| 20260508011734 | 50 | 224 | 0.0 | 0.0 | 0.00 | 0.16 | 0.00 | 94 | 1012.9 |
| 20260508010234 | 50 | 225 | 0.0 | 0.0 | 0.00 | 0.16 | 0.00 | 94 | 1012.8 |
| 20260508004735 | 49 | 224 | 0.0 | 0.0 | 0.00 | 0.16 | 0.00 | 94 | 1012.9 |
| 20260508003234 | 49 | 225 | 0.0 | 0.0 | 0.00 | 0.16 | 0.00 | 94 | 1012.7 |
| 20260508001733 | 49 | 224 | 0.0 | 0.0 | 0.00 | 0.16 | 0.00 | 94 | 1012.7 |
| 20260508000234 | 49 | 224 | 0.0 | 0.0 | 0.00 | 0.16 | 0.00 | 93 | 1012.8 |
| 20260507234735 | 50 | 225 | 0.0 | 0.0 | 0.00 | 0.16 | 0.00 | 93 | 1012.7 |
| 20260507233232 | 50 | 224 | 0.0 | 0.0 | 0.00 | 0.16 | 0.00 | 93 | 1012.7 |
| 20260507231730 | 50 | 225 | 0.0 | 0.0 | 0.00 | 0.16 | 0.00 | 93 | 1012.7 |
| 20260507230231 | 50 | 224 | 0.0 | 0.0 | 0.00 | 0.16 | 0.00 | 93 | 1012.7 |
| 20260507224729 | 51 | 224 | 0.0 | 1.0 | 0.00 | 0.16 | 0.00 | 92 | 1012.8 |
| 20260507223228 | 51 | 225 | 0.0 | 0.0 | 0.00 | 0.16 | 0.00 | 92 | 1012.8 |
| 20260507221730 | 52 | 225 | 0.0 | 0.0 | 0.00 | 0.16 | 0.00 | 92 | 1012.8 |
| 20260507220227 | 52 | 225 | 0.0 | 0.0 | 0.00 | 0.16 | 0.04 | 92 | 1012.8 |
| 20260507214726 | 52 | 224 | 0.0 | 0.0 | 0.00 | 0.16 | 0.04 | 91 | 1012.7 |
| 20260507213228 | 53 | 225 | 0.0 | 0.0 | 0.00 | 0.16 | 0.04 | 91 | 1012.6 |
| 20260507211727 | 53 | 224 | 0.0 | 0.0 | 0.00 | 0.16 | 0.04 | 91 | 1012.6 |
| 20260507210226 | 53 | 224 | 2.0 | 3.0 | 0.00 | 0.16 | 0.04 | 90 | 1012.5 |
| 20260507204727 | 54 | 225 | 0.0 | 0.0 | 0.00 | 0.16 | 0.04 | 90 | 1012.2 |
| 20260507203233 | 54 | 225 | 0.0 | 0.0 | 0.00 | 0.16 | 0.04 | 89 | 1012.4 |
| 20260507201733 | 55 | 225 | 0.0 | 0.0 | 0.00 | 0.16 | 0.04 | 87 | 1012.1 |
| 20260507200216 | 55 | 225 | 1.0 | 2.0 | 0.00 | 0.20 | 0.04 | 85 | 1011.9 |
| 20260507193222 | 57 | 224 | 0.0 | 0.0 | 0.00 | 0.20 | 0.04 | 80 | 1011.4 |
| 20260507191724 | 59 | 224 | 0.0 | 0.0 | 0.00 | 0.20 | 0.04 | 77 | 1011.2 |
| 20260507190230 | 61 | 224 | 0.0 | 0.0 | 0.00 | 0.20 | 0.04 | 72 | 1011.0 |
| 20260507184731 | 63 | 225 | 0.0 | 0.0 | 0.00 | 0.20 | 0.04 | 68 | 1010.9 |
| 20260507183230 | 65 | 224 | 0.0 | 0.0 | 0.00 | 0.20 | 0.04 | 60 | 1010.8 |
| 20260507181715 | 67 | 224 | 0.0 | 0.0 | 0.00 | 0.20 | 0.04 | 57 | 1010.7 |
| 20260507180218 | 69 | 224 | 0.0 | 4.0 | 0.00 | 0.20 | 0.04 | 51 | 1010.5 |
| 20260507174721 | 71 | 224 | 3.0 | 5.0 | 0.00 | 0.20 | 0.04 | 49 | 1010.3 |
| 20260507173227 | 72 | 236 | 1.0 | 5.0 | 0.00 | 0.20 | 0.04 | 47 | 1010.2 |
| 20260507171730 | 72 | 211 | 2.0 | 5.0 | 0.00 | 0.20 | 0.04 | 48 | 1010.1 |
| 20260507170230 | 72 | 274 | 1.0 | 3.0 | 0.00 | 0.20 | 0.04 | 46 | 1010.1 |
| 20260507164716 | 72 | 254 | 2.0 | 5.0 | 0.00 | 0.20 | 0.04 | 44 | 1010.0 |
| 20260507163219 | 72 | 177 | 1.0 | 4.0 | 0.00 | 0.20 | 0.04 | 47 | 1009.9 |
| 20260507161719 | 71 | 250 | 3.0 | 7.0 | 0.00 | 0.20 | 0.04 | 48 | 1009.9 |
| 20260507160223 | 71 | 247 | 3.0 | 7.0 | 0.00 | 2.60 | 0.04 | 47 | 1010.0 |
| 20260507154722 | 71 | 203 | 4.0 | 6.0 | 0.00 | 2.60 | 0.04 | 49 | 1010.0 |
| 20260507153222 | 71 | 148 | 5.0 | 7.0 | 0.00 | 2.60 | 0.04 | 47 | 1010.0 |
| 20260507151721 | 71 | 181 | 3.0 | 8.0 | 0.00 | 2.60 | 0.04 | 49 | 1010.0 |
| 20260507150228 | 70 | 146 | 5.0 | 8.0 | 0.00 | 3.15 | 0.04 | 51 | 1010.0 |
| 20260507144728 | 71 | 252 | 4.0 | 9.0 | 0.00 | 3.15 | 0.04 | 49 | 1010.1 |
| 20260507143229 | 70 | 179 | 4.0 | 9.0 | 0.00 | 3.15 | 0.04 | 52 | 1010.2 |
| 20260507141733 | 70 | 211 | 4.0 | 9.0 | 0.00 | 3.15 | 0.04 | 53 | 1010.3 |
| 20260507140232 | 69 | 227 | 2.0 | 8.0 | 0.00 | 3.27 | 0.04 | 54 | 1010.4 |
| 20260507134715 | 70 | 298 | 2.0 | 8.0 | 0.00 | 3.27 | 0.04 | 51 | 1010.4 |
| 20260507133221 | 70 | 184 | 5.0 | 9.0 | 0.00 | 3.27 | 0.04 | 54 | 1010.6 |
| 20260507131723 | 69 | 348 | 2.0 | 6.0 | 0.00 | 3.27 | 0.04 | 55 | 1010.7 |
| 20260507130222 | 70 | 173 | 4.0 | 9.0 | 0.00 | 3.27 | 0.04 | 57 | 1010.8 |
| 20260507124728 | 70 | 169 | 5.0 | 14.0 | 0.00 | 3.27 | 0.04 | 56 | 1010.9 |
| 20260507123228 | 70 | 236 | 4.0 | 10.0 | 0.00 | 3.27 | 0.04 | 58 | 1010.9 |
| 20260507121728 | 68 | 157 | 3.0 | 10.0 | 0.00 | 3.27 | 0.04 | 61 | 1011.0 |
| 20260507120234 | 68 | 285 | 2.0 | 7.0 | 0.00 | 3.27 | 0.04 | 56 | 1011.2 |